Terminal Aerodrome Forecast
Issued by NWS Rapid City, SD

Home | Current Version | Previous Version | Graphics & Text | Print | Product List | Glossary On
Versions: 1 2 3 4 5 6 7 8 9 10 11 12 13 14 15 16 17 18 19 20 21 22 23 24 25 26 27 28 29 30 31 32
137
FTUS43 KUNR 111900 AAA
TAFRAP
TAF AMD
KRAP 111900Z 1119/1218 32032G45KT P6SM BKN100
     FM120000 33014G24KT P6SM BKN100
     FM120400 02006KT 1/2SM FZFG VV002
     FM121700 13010KT 4SM BR OVC004=

USA.gov is the U.S. government's official web portal to all federal, state and local government web resources and services.